Погода в Ишиме

Россия / Тюменская область     56°06′37″N   69°28′46″E
темп.,
°C
ветер,
м/с
пор.,
м/с
влажн.,
%
обл.,
%
осадки,
мм/ч
давл.,
гПа
погр.,
м
18 августа, чт
чт1823:00+9ссз2589100 0.8 1019203
02:00+7ссз3695100 0.3 1019196
05:00+8ссз379468 0.4 1020260
08:00+10ссв468192 0.1 1021435
11:00+13с465748 0.1 10221205
14:00+14ссв5543100 0.1 10221943
17:00+14с5643100 0.1 10231470
20:00+9ссз356444 0.0 102472
19 августа, пт
пт1923:00+8с497641 0.0 1025254
02:00+4ссз37945 0.0 1025120
05:00+3сз369482 0.0 1026101
08:00+9сз4769100 0.0 1026330
11:00+12сз6762100 0.0 1025862
14:00+9сз51094100 1.3 1024535
17:00+10сз5996100 4.5 1023434
20:00+11с51096100 1.2 1022620
20 августа, сб
сб2023:00+10с3897100 1.4 1022359
02:00+10ссв3492100 0.0 1023214
05:00+9с2494100 0.0 1024126
08:00+11ссз2287100 0.0 1024368
11:00+16з116392 0.0 1024763
14:00+19з224891 0.0 10231486
17:00+19зсз334824 0.0 10221566
20:00+13сз22785 0.0 102322
21 августа, вс
вс2123:00+10зсз229391 0.0 102423
02:00+10з229572 0.0 102435
05:00+12з2495100 0.1 1023132
08:00+13сз249398 0.1 1024250
11:00+14ссв458888 0.5 1024535
14:00+15ссв4570100 0.1 1025862
17:00+16ссв456438 0.3 1025975
20:00+12вюв00780 0.0 102610
22 августа, пн
пн2223:00+10ссз228017 0.0 102722
02:00+8ссв33784 0.0 102727
05:00+7ссв22824 0.0 102818
08:00+13ссв34595 0.0 1029281
11:00+18св34426 0.0 10301133
14:00+20св34355 0.0 10291450
17:00+20ссв343620 0.0 10291442
20:00+14с225831 0.0 102912